QUETZSAT 1

Last updated on Thu Jul 03 2025 00:02:45 GMT+0000 (Coordinated Universal Time)

1 37826U 11054A 25183.55133058 -.00000234 00000+0 00000+0 0 9994 2 37826 0.0190 323.5096 0003198 152.3922 286.4017 1.00271929 46369
UTC large
Height (km)
Speed (km/s)
/
Latitude / Longitude
Inclination (degrees)
Orbital Period (minutes)
Azimuth
Elevation
Range (km)
Doppler Factor

Next 0 passes for location: London (51.5072 / 0.1276)

Sorry there are no passes over London.